Location: Cossonay
(46.5833°N, 6.4167°E)
Time: 22:32:11
(UTC+00:00)

CBERS-1 - Pass Details

Date: 01 October 2020
Orbit: 770 x 777 km, 98.6° (Epoch: 22 October)

Event Time Altitude Azimuth Distance (km) Brightness Sun altitude
Rises 03:31:22 0° 1° (N) 3,258 7.5 -21.5°
Reaches altitude 10° 03:34:23 10° 342° (NNW) 2,328 6.5 -21.0°
Enters shadow 03:36:48 17° 315° (NW) 1,894 5.8 -20.6°
